1334880031264,4.27124
1334880091264,4.24553
1334880151264,4.23196
1334880211264,4.25336
1334880271264,4.25537
1334880331264,4.25990
1334880391264,4.22945
1334880451264,4.25547
1334880511264,4.26623
1334880571264,4.27695
1334880631264,4.24362
1334880691264,4.26467
1334880751264,4.23701
1334880811264,4.27054
1334880871264,4.27179
1334880931264,4.28196
1334880991264,4.24097
1334881051264,4.24806
1334881111264,4.25652
1334881171264,4.26170
1334881231264,4.22822
1334881291264,4.24134
1334881351264,4.24676
1334881411264,4.28053
1334881471264,4.26823
1334881531264,4.26258
1334881591264,4.28494
1334881651264,4.27585
1334881711264,4.26981
1334881771264,4.27992
1334881831264,4.27127
1334881891264,4.27985
1334881951264,4.28935
1334882011264,4.25331
1334882071264,4.26973
1334882131264,4.25189
1334882191264,4.25733
1334882251264,4.25942
1334882311264,4.33669
1334882371264,4.27503
1334882431264,4.27923
1334882491264,4.25498
1334882551264,4.22887
1334882611264,4.26096
1334882671264,4.28189
1334882731264,4.25289
1334882791264,4.24961
1334882851264,4.26702
1334882911264,4.23170
1334882971264,4.24792
1334883031264,4.23556
1334883091264,4.24334
1334883151264,4.26865
1334883211264,4.25418
1334883271264,4.28285
1334883331264,4.26485
1334883391264,4.30065
1334883451264,4.26634
1334883511264,4.24076
1334883571264,4.25846
1334883631275,4.26221
1334883691275,4.28881
1334883751275,4.24300
1334883811275,4.26283
1334883871275,4.27063
1334883931275,4.25805
1334883991275,4.25888
1334884051275,4.23167
1334884111275,4.28352
1334884171275,4.25434
1334884231275,4.25311
1334884291275,4.26083
1334884351275,4.25858
1334884411275,4.24014
1334884471275,4.29411
1334884531275,4.23998
1334884591275,4.21697
1334884651275,4.26152
1334884711275,4.27265
1334884771275,4.27647
1334884831275,4.24571
1334884891275,4.27259
1334884951275,4.27037
1334885011275,4.24341
1334885071275,4.26175
1334885131275,4.36180
1334885191275,4.33973
1334885251275,4.23596
1334885311275,4.28927
1334885371275,4.24643
1334885431275,4.25209
1334885491275,4.27654
1334885551275,4.25516
1334885611275,4.22310
1334885671275,4.26396
1334885731275,4.24951
1334885791275,4.25055
1334885851275,4.27167
1334885911275,4.22752
1334885971275,4.24333
1334886031275,4.25390
1334886091275,4.23262
1334886151275,4.25689
1334886211275,4.22126
1334886271275,4.26246
1334886331275,4.28646
1334886391275,4.29777
1334886451275,4.29039
1334886511275,4.24234
1334886571275,4.27563
1334886631275,4.27416
1334886691275,4.27422
1334886751275,4.25126
1334886811275,4.26302
1334886871275,4.29099
1334886931275,4.24521
1334886991275,4.23854
1334887051275,4.28156
1334887111275,4.28797
1334887171275,4.27457
1334887231286,4.33618
1334887291286,4.27484
1334887351286,4.31868
1334887411286,4.28810
1334887471286,4.30015
1334887531286,4.30361
1334887591286,4.28951
1334887651286,4.28686
1334887711286,4.23685
1334887771286,4.28292
1334887831286,4.27331
1334887891286,4.29893
1334887951286,4.24171
1334888011286,4.28386
1334888071286,4.28559
1334888131286,4.27291
1334888191286,4.29778
1334888251286,4.29338
1334888311286,4.29135
1334888371286,4.31049
1334888431286,4.26479
1334888491286,4.28434
1334888551286,4.28308
1334888611286,4.26490
1334888671286,4.29692
1334888731286,4.26932
1334888791286,4.26030
1334888851286,4.25883
1334888911286,4.28037
1334888971286,4.28511
1334889031286,4.27618
1334889091286,4.27032
1334889151286,4.24512
1334889211286,4.26069
1334889271286,4.28470
1334889331286,4.25964
1334889391286,4.24430
1334889451286,4.25666
1334889511286,4.23790
1334889571286,4.25319
1334889631286,4.25540
1334889691286,4.24924
1334889751286,4.24727
1334889811286,4.26442
1334889871286,4.29567
1334889931286,4.22478
1334889991286,4.26111
1334890051286,4.26078
1334890111286,4.26046
1334890171286,4.24524
1334890231286,4.27662
1334890291286,4.26629
1334890351286,4.28028
1334890411286,4.27444
1334890471286,4.28301
1334890531286,4.23610
1334890591286,4.25364
1334890651286,4.26569
1334890711286,4.22621
1334890771286,4.25503
1334890831297,4.23422
1334890891297,4.26029
1334890951297,4.26039
1334891011297,4.24412
1334891071297,4.24213
1334891131297,4.21347
1334891191297,4.25111
1334891251297,4.27696
1334891311297,4.25474
1334891371297,4.25532
1334891431297,4.22932
1334891491297,4.25401
1334891551297,4.23062
1334891611297,4.24823
1334891671297,4.25625
1334891731297,4.27236
1334891791297,4.26473
1334891851297,4.29556
1334891911297,4.30812
1334891971297,4.30450
1334892031297,4.34774
1334892091297,4.39686
1334892151297,4.35311
1334892211297,4.31280
1334892271297,4.30202
1334892331297,4.29996
1334892391297,4.32442
1334892451297,4.28686
1334892511297,4.28330
1334892571297,4.27730
1334892631297,4.29526
1334892691297,4.26353
1334892751297,4.26898
1334892811297,4.29131
1334892871297,4.28331
1334892931297,4.27952
1334892991297,4.54449
1334893051297,4.27312
1334893111297,4.30905
1334893171297,4.28679
1334893231297,4.25995
1334893291297,4.25452
1334893351297,4.27927
1334893411297,4.26606
1334893471297,4.24315
1334893531297,4.28072
1334893591297,4.27712
1334893651297,4.26264
1334893711297,4.24974
1334893771297,4.25867
1334893831297,4.28263
1334893891297,4.29553
1334893951297,4.26897
1334894011297,4.29456
1334894071297,4.26605
1334894131297,4.29778
1334894191297,4.28118
1334894251297,4.25299
1334894311297,4.24883
1334894371297,4.21281
1334894431308,4.28164
1334894491308,4.26702
1334894551308,4.27139
1334894611308,4.29387
1334894671308,4.25696
1334894731308,4.22824
1334894791308,4.24119
1334894851308,4.23392
1334894911308,4.25584
1334894971308,4.25068
1334895031308,4.25079
1334895091308,4.22770
1334895151308,4.22776
1334895211308,4.26689
1334895271308,4.27355
1334895331308,4.26287
1334895391308,4.25906
1334895451308,4.22641
1334895511308,4.25336
1334895571308,4.25734
1334895631308,4.22731
1334895691308,4.24528
1334895751308,4.19881
1334895811308,4.22369
1334895871308,4.23202
1334895931308,4.24712
1334895991308,4.24477
1334896051308,4.24997
1334896111308,4.27846
1334896171308,4.21596
1334896231308,4.23007
1334896291308,4.19588
1334896351308,4.26428
1334896411308,4.25798
1334896471308,4.22942
1334896531308,4.24482
1334896591308,4.26704
1334896651308,4.23460
1334896711308,4.21470
1334896771308,4.22135
1334896831308,4.26745
1334896891308,4.25286
1334896951308,4.24605
1334897011308,4.23357
1334897071308,4.25160
1334897131308,4.23493
1334897191308,4.24930
1334897251308,4.22129
1334897311308,4.21701
1334897371308,4.19955
1334897431308,4.20357
1334897491308,4.24629
1334897551308,4.22680
1334897611308,4.24115
1334897671308,4.23993
1334897731308,4.23969
1334897791308,4.23428
1334897851308,4.24863
1334897911308,4.28947
1334897971308,4.26055
1334898031318,4.21077
1334898091318,4.25104
1334898151318,4.23719
1334898211318,4.23659
1334898271318,4.20878
1334898331318,4.26273
1334898391318,4.24501
1334898451318,4.21792
1334898511318,4.20658
1334898571318,4.22639
1334898631318,4.21485
1334898691318,4.22201
1334898751318,4.20835
1334898811318,4.20656
1334898871318,4.23006
1334898931318,4.20063
1334898991318,4.19850
1334899051318,4.21411
1334899111318,4.21742
1334899171318,4.22921
1334899231318,4.20098
1334899291318,4.19924
1334899351318,4.21230
1334899411318,4.20202
1334899471318,4.21713
1334899531318,4.23005
1334899591318,4.23702
1334899651318,4.23901
1334899711318,4.21705
1334899771318,4.20652
1334899831318,4.19114
1334899891318,4.21877
1334899951318,4.23143
1334900011318,4.19672
1334900071318,4.20278
1334900131318,4.22133
1334900191318,4.20849
1334900251318,4.22434
1334900311318,4.21898
1334900371318,4.22199
1334900431318,4.20502
1334900491318,4.19268
1334900551318,4.22610
1334900611318,4.19071
1334900671318,4.19211
1334900731318,4.19393
1334900791318,4.23157
1334900851318,4.19829
1334900911318,4.23460
1334900971318,4.18415
1334901031318,4.18949
1334901091318,4.20211
1334901151318,4.18259
1334901211318,4.18781
1334901271318,4.20858
1334901331318,4.20367
1334901391318,4.19699
1334901451318,4.18590
1334901511318,4.21177
1334901571318,4.18645
1334901631329,4.18813
1334901691329,4.23596
1334901751329,4.18494
1334901811329,4.18257
1334901871329,4.19134
1334901931329,4.22544
1334901991329,4.25498
1334902051329,4.22403
1334902111329,4.19643
1334902171329,4.22178
1334902231329,4.22113
1334902291329,4.19491
1334902351329,4.19413
1334902411329,4.21863
1334902471329,4.16940
1334902531329,4.22195
1334902591329,4.23740
1334902651329,4.19822
1334902711329,4.24406
1334902771329,4.23721
1334902831329,4.24383
1334902891329,4.20106
1334902951329,4.19401
1334903011329,4.24438
1334903071329,4.22548
1334903131329,4.20012
1334903191329,4.22131
1334903251329,4.22985
1334903311329,4.25484
1334903371329,4.20960
1334903431329,4.22166
1334903491329,4.20954
1334903551329,4.22448
1334903611329,4.20762
1334903671329,4.21621
1334903731329,4.20573
1334903791329,4.19939
1334903851329,4.22802
1334903911329,4.25226
1334903971329,4.22368
1334904031329,4.25277
1334904091329,4.22841
1334904151329,4.19484
1334904211329,4.23121
1334904271329,4.22596
1334904331329,4.20092
1334904391329,4.22127
1334904451329,4.22188
1334904511329,4.21293
1334904571329,4.19263
1334904631329,4.25464
1334904691329,4.22366
1334904751329,4.18741
1334904811329,4.22238
1334904871329,4.25464
1334904931329,4.25740
1334904991329,4.22063
1334905051329,4.24128
1334905111329,4.23835
1334905171329,4.23002
1334905231339,4.25167
1334905291339,4.21073
1334905351339,4.23687
1334905411339,4.22268
1334905471339,4.24896
1334905531339,4.24023
1334905591339,4.23472
1334905651339,4.25150
1334905711339,4.24323
1334905771339,4.27134
1334905831339,4.21463
1334905891339,4.22660
1334905951339,4.26502
1334906011339,4.24780
1334906071339,4.25566
1334906131339,4.25698
1334906191339,4.22757
1334906251339,4.23317
1334906311339,4.26254
1334906371339,4.21243
1334906431339,4.25433
1334906491339,4.21408
1334906551339,4.25255
1334906611339,4.27605
1334906671339,4.23247
1334906731339,4.22970
1334906791339,4.22658
1334906851339,4.22472
1334906911339,4.24226
1334906971339,4.24141
1334907031339,4.25319
1334907091339,4.20359
1334907151339,4.24220
1334907211339,4.23847
1334907271339,4.21997
1334907331339,4.23963
1334907391339,4.24727
1334907451339,4.27201
1334907511339,4.23879
1334907571339,4.22530
1334907631339,4.24073
1334907691339,4.22458
1334907751339,4.25776
1334907811339,4.21306
1334907871339,4.22675
1334907931339,4.23431
1334907991339,4.23095
1334908051339,4.20635
1334908111339,4.25062
1334908171339,4.23152
1334908231339,4.22342
1334908291339,4.22429
1334908351339,4.21323
1334908411339,4.22345
1334908471339,4.23869
1334908531339,4.23130
1334908591339,4.22795
1334908651339,4.22229
1334908711339,4.26421
1334908771339,4.22796
1334908831350,4.20880
1334908891350,4.23588
1334908951350,4.25823
1334909011350,4.24712
1334909071350,4.25550
1334909131350,4.20239
1334909191350,4.21720
1334909251350,4.20737
1334909311350,4.19710
1334909371350,4.20431
1334909431350,4.21101
1334909491350,4.24397
1334909551350,4.22089
1334909611350,4.19408
1334909671350,4.19868
1334909731350,4.24395
1334909791350,4.23314
1334909851350,4.24028
1334909911350,4.23426
1334909971350,4.23483
1334910031350,4.19372
1334910091350,4.19646
1334910151350,4.20657
1334910211350,4.22370
1334910271350,4.24854
1334910331350,4.19775
1334910391350,4.20624
1334910451350,4.32235
1334910511350,4.22591
1334910571350,4.19506
1334910631350,4.23218
1334910691350,4.21632
1334910751350,4.23154
1334910811350,4.21168
1334910871350,4.23548
1334910931350,4.19969
1334910991350,4.20279
1334911051350,4.21585
1334911111350,4.21522
1334911171350,4.24630
1334911231350,4.23483
1334911291350,4.17481
1334911351350,4.18950
1334911411350,4.18117
1334911471350,4.17272
1334911531350,4.20690
1334911591350,4.21200
1334911651350,4.19046
1334911711350,4.19636
1334911771350,4.18984
1334911831350,4.16840
1334911891350,4.19685
1334911951350,4.18035
1334912011350,4.20054
1334912071350,4.19646
1334912131350,4.15546
1334912191350,4.18776
1334912251350,4.17896
1334912311350,4.19738
1334912371350,4.17114
1334912431360,4.18219
1334912491360,4.19572
1334912551360,4.18673
1334912611360,4.15241
1334912671360,4.19831
1334912731360,4.17765
1334912791360,4.18702
1334912851360,4.17463
1334912911360,4.20246
1334912971360,4.18088
1334913031360,4.19113
1334913091360,4.16334
1334913151360,4.19141
1334913211360,4.15998
1334913271360,4.20009
1334913331360,4.14025
1334913391360,4.19988
1334913451360,4.20713
1334913511360,4.19110
1334913571360,4.17025
1334913631360,4.15149
1334913691360,4.17081
1334913751360,4.19295
1334913811360,4.18120
1334913871360,4.21554
1334913931360,4.17928
1334913991360,4.15748
1334914051360,4.17082
1334914111360,4.16800
1334914171360,4.22773
1334914231360,4.17509
1334914291360,4.18784
1334914351360,4.20433
1334914411360,4.18659
1334914471360,4.16415
1334914531360,4.17701
1334914591360,4.20146
1334914651360,4.20226
1334914711360,4.22137
1334914771360,4.17775
1334914831360,4.19357
1334914891360,4.20251
1334914951360,4.19630
1334915011360,4.23150
1334915071360,4.23447
1334915131360,4.20824
1334915191360,4.19810
1334915251360,4.18624
1334915311360,4.20015
1334915371360,4.21188
1334915431360,4.22212
1334915491360,4.21246
1334915551360,4.17980
1334915611360,4.20770
1334915671360,4.15442
1334915731360,4.19822
1334915791360,4.19804
1334915851360,4.19680
1334915911360,4.18724
1334915971360,4.21554
1334916031371,4.17737
1334916091371,4.21385
1334916151371,4.18954
1334916211371,4.21288
1334916271371,4.20161
1334916331371,4.18796
1334916391371,4.25813
1334916451371,4.22417
1334916511371,4.21277
1334916571371,4.17804
1334916631371,4.18626
1334916691371,4.18447
1334916751371,4.19396
1334916811371,4.19775
1334916871371,4.17492
1334916931371,4.19358
1334916991371,4.18963
1334917051371,4.17839
1334917111371,4.20452
1334917171371,4.18537
1334917231371,4.14854
1334917291371,4.19546
1334917351371,4.18779
1334917411371,4.20042
1334917471371,4.23771
1334917531371,4.16918
1334917591371,4.20134
1334917651371,4.19351
1334917711371,4.22040
1334917771371,4.21041
1334917831371,4.19657
1334917891371,4.20031
1334917951371,4.17949
1334918011371,4.21345
1334918071371,4.20349
1334918131371,4.17175
1334918191371,4.20012
1334918251371,4.23190
1334918311371,4.22558
1334918371371,4.19935
1334918431371,4.22064
1334918491371,4.24947
1334918551371,4.19684
1334918611371,4.22505
1334918671371,4.19451
1334918731371,4.23430
1334918791371,4.18840
1334918851371,4.20299
1334918911371,4.21592
1334918971371,4.16334
1334919031371,4.20921
1334919091371,4.21172
1334919151371,4.20103
1334919211371,4.21967
1334919271371,4.21626
1334919331371,4.19125
1334919391371,4.19299
1334919451371,4.20848
1334919511371,4.22198
1334919571371,4.20152
1334919631381,4.19715
1334919691381,4.19694
1334919751381,4.20197
1334919811381,4.20790
1334919871381,4.23304
1334919931381,4.20959
1334919991381,4.17976
1334920051381,4.18397
1334920111381,4.22650
1334920171381,4.18153
1334920231381,4.17415
1334920291381,4.21058
1334920831381,4.21531
1334920891381,4.23559
1334920951381,4.22107
1334921011381,4.23638
1334921071381,4.20648
1334921131381,4.17659
1334921191381,4.20540
1334921251381,4.21987
1334921311381,4.20532
1334921371381,4.19725
1334921431381,4.20631
1334921491381,4.20141
1334921551381,4.19787
1334921611381,4.21758
1334921671381,4.21886
1334921731381,4.21153
1334921791381,4.19849
1334921851381,4.19741
1334921911381,4.20452
1334921971381,4.22113
1334922031381,4.20764
1334922091381,4.19441
1334922151381,4.23016
1334922211381,4.19179
1334922271381,4.18468
1334922331381,4.21243
1334922391381,4.17573
1334922451381,4.20766
1334922511381,4.21624
1334922571381,4.20274
1334922631381,4.17739
1334922691381,4.21043
1334922751381,4.18497
1334922811381,4.21226
1334922871381,4.19073
1334922931381,4.24086
1334922991381,4.22242
1334923051381,4.19613
1334923111381,4.21202
1334923171381,4.17675
1334923231392,4.18299
1334923291392,4.18982
1334923351392,4.21091
1334923411392,4.18619
1334923471392,4.17611
1334923531392,4.21563
1334923591392,4.20839
1334923651392,4.17250
1334923711392,4.14696
1334923771392,4.19051
1334923831392,4.15576
1334923891392,4.16992
1334923951392,4.20998
1334924011392,4.17409
1334924071392,4.15554
1334924131392,4.15018
1334924191392,4.16608
1334924251392,4.14479
1334924311392,4.18173
1334924371392,4.13217
1334924431392,4.17464
1334924491392,4.19729
1334924551392,4.14916
1334924611392,4.17339
1334924671392,4.16952
1334924731392,4.16309
1334924791392,4.14408
1334924851392,4.17032
1334924911392,4.20637
1334924971392,4.15762
1334925031392,4.17247
1334925091392,4.17325
1334925151392,4.17115
1334925211392,4.18705
1334925271392,4.15931
1334925331392,4.15204
1334925391392,4.18182
1334925451392,4.19092
1334925511392,4.14966
1334925571392,4.16935
1334925631392,4.16644
1334925691392,4.15019
1334925751392,4.16761
1334925811392,4.21637
1334925871392,4.18137
1334925931392,4.16734
1334925991392,4.16963
1334926051392,4.17155
1334926111392,4.16754
1334926171392,4.18078
1334926231392,4.15949
1334926291392,4.18955
1334926351392,4.19929
1334926411392,4.18994
1334926471392,4.15986
1334926531392,4.19279
1334926591392,4.17292
1334926651392,4.14115
1334926711392,4.16147
1334926771392,4.15090
1334926831418,4.18263
1334926891418,4.15007
1334926951418,4.14894
1334927011418,4.20937
1334927071418,4.19660
1334927131418,4.19111
1334927191418,4.18681
1334927251418,4.13412
1334927311418,4.19552
1334927371418,4.18383
1334927431418,4.23195
1334927491418,4.16077
1334927551418,4.19189
1334927611418,4.17889
1334927671418,4.18436
1334927731418,4.19011
1334927791418,4.22081
1334927851418,4.14229
1334927911418,4.17075
1334927971418,4.18496
1334928031418,4.15103
1334928091418,4.16491
1334928151418,4.18906
1334928211418,4.21352
1334928271418,4.22307
1334928331418,4.16980
1334928391418,4.18519
1334928451418,4.18544
1334928511418,4.20762
1334928571418,4.22614
1334928631418,4.22187
1334928691418,4.21798
1334928751418,4.19549
1334928811418,4.20214
1334928871418,4.21594
1334928931418,4.20215
1334928991418,4.21048
1334929051418,4.18720
1334929111418,4.25722
1334929171418,4.21083
1334929231418,4.18718
1334929291418,4.23631
1334929351418,4.22689
1334929411418,4.21212
1334929471418,4.22904
1334929531418,4.17791
1334929591418,4.21445
1334929651418,4.21025
1334929711418,4.19878
1334929771418,4.20871
1334929831418,4.21157
1334929891418,4.18261
1334929951418,4.25713
1334930011418,4.16994
1334930071418,4.22385
1334930131418,4.20284
1334930191418,4.24610
1334930251418,4.23484
1334930311418,4.19638
1334930371418,4.23166
1334930431429,4.21021
1334930491429,4.28179
1334930551429,4.21576
1334930611429,4.27746
1334930671429,4.23995
1334930731429,4.22967
1334930791429,4.21885
1334930851429,4.21910
1334930911429,4.21875
1334930971429,4.21875
1334931031429,4.18673
1334931091429,4.20292
1334931151429,4.23281
1334931211429,4.20413
1334931271429,4.19167
1334931331429,4.23343
1334931391429,4.23912
1334931451429,4.21218
1334931511429,4.23693
1334931571429,4.25791
1334931631429,4.22313
1334931691429,4.19963
1334931751429,4.21965
1334931811429,4.21376
1334931871429,4.21669
1334931931429,4.22686
1334931991429,4.22562
1334932051429,4.23516
1334932111429,4.25280
1334932171429,4.23200
1334932231429,4.27011
1334932291429,4.26300
1334932351429,4.24291
1334932411429,4.20231
1334932471429,4.24121
1334932531429,4.23421
1334932591429,4.25476
1334932651429,4.20865
1334932711429,4.23446
1334932771429,4.22375
1334932831429,4.22595
1334932891429,4.21499
1334932951429,4.18512
1334933011429,4.23623
1334933071429,4.20960
1334933131429,4.20958
1334933191429,4.22476
1334933251429,4.20469
1334933311429,4.21539
1334933371429,4.23437
1334933431429,4.22838
1334933491429,4.24758
1334933551429,4.28741
1334933611429,4.30867
1334933671429,4.30053
1334933731429,4.48455
1334933791429,4.30982
1334933851429,4.35040
1334933911429,4.31718
1334933971429,4.37324
1334934031439,4.34199
1334934091439,4.33161
1334934151439,4.36015
1334934211439,4.30637
1334934271439,4.33874
1334934331439,4.32568
1334934391439,4.31827
1334934451439,4.31950
1334934511439,4.31319
1334934571439,4.30764
1334934631439,4.28987
1334934691439,4.27826
1334934751439,4.26357
1334934811439,4.28244
1334934871439,4.25638
1334934931439,4.26880
1334934991439,4.20067
1334935051439,4.23654
1334935111439,4.23611
1334935171439,4.24525
1334935231439,4.23590
1334935291439,4.26121
1334935351439,4.27289
1334935411439,4.23609
1334935471439,4.23605
1334935531439,4.22971
1334935591439,4.21790
1334935651439,4.20787
1334935711439,4.20648
1334935771439,4.21816
1334935831439,4.22486
1334935891439,4.20808
1334935951439,4.19093
1334936011439,4.19440
1334936071439,4.23708
1334936131439,4.19369
1334936191439,4.21390
1334936251439,4.18917
1334936311439,4.22932
1334936371439,4.22299
1334936431439,4.19579
1334936491439,4.19392
1334936551439,4.20582
1334936611439,4.24959
1334936671439,4.26140
1334936731439,4.25095
1334936791439,4.25048
1334936851439,4.23979
1334936911439,4.26346
1334936971439,4.22571
1334937031439,4.23180
1334937091439,4.22955
1334937151439,4.20062
1334937211439,4.23527
1334937271439,4.24123
1334937331439,4.21653
1334937391439,4.22620
1334937451439,4.18941
1334937511439,4.23740
1334937571439,4.20051
1334937631449,4.21733
1334937691449,4.21100
1334937751449,4.23325
1334937811449,4.25291
1334937871449,4.28215
1334937931449,4.28324
1334937991449,4.26508
1334938051449,4.23443
1334938111449,4.24784
1334938171449,4.18846
1334938231449,4.25298
1334938291449,4.22078
1334938351449,4.23036
1334938411449,4.19671
1334938471449,4.18104
1334938531449,4.21865
1334938591449,4.19017
1334938651449,4.21712
1334938711449,4.19574
1334938771449,4.27292
1334938831449,4.23984
1334938891449,4.21936
1334938951449,4.25887
1334939011449,4.25336
1334939071449,4.28053
1334939131449,4.28780
1334939191449,4.26298
1334939251449,4.23110
1334939311449,4.21920
1334939371449,4.23665
1334939431449,4.20657
1334939491449,4.20272
1334939551449,4.20790
1334939611449,4.21316
1334939671449,4.18612
1334939731449,4.22732
1334939791449,4.21993
1334939851449,4.24993
1334939911449,4.24092
1334939971449,4.26804
1334940031449,4.26776
1334940091449,4.30429
1334940151449,4.29833
1334940211449,4.26607
1334940271449,4.25031
1334940331449,4.25389
1334940391449,4.24194
1334940451449,4.28222
1334940511449,4.27322
1334940571449,4.25641
1334940631449,4.25904
1334940691449,4.28114
1334940751449,4.25748
1334940811449,4.24737
1334940871449,4.23106
1334940931449,4.22902
1334940991449,4.23757
1334941051449,4.24140
1334941111449,4.20999
1334941171449,4.22498
1334941231459,4.24334
1334941291459,4.23779
1334941351459,4.19688
1334941411459,4.24159
1334941471459,4.20247
1334941531459,4.20292
1334941591459,4.19349
1334941651459,4.15361
1334941711459,4.20997
1334941771459,4.22958
1334941831459,4.22965
1334941891459,4.25638
1334941951459,4.21286
1334942011459,4.20157
1334942071459,4.19857
1334942131459,4.20130
1334942191459,4.19189
1334942251459,4.20305
1334942311459,4.20438
1334942371459,4.24329
1334942431459,4.22555
1334942491459,4.24473
1334942551459,4.23734
1334942611459,4.23887
1334942671459,4.31748
1334942731459,4.30755
1334942791459,4.33581
1334942851459,4.29603
1334942911459,4.31105
1334942971459,4.32400
1334943031459,4.39448
1334943091459,4.35395
1334943151459,4.32901
1334943211459,4.29643
1334943271459,4.28983
1334943331459,4.27588
1334943391459,4.26908
1334943451459,4.27647
1334943511459,4.26637
1334943571459,4.29092
1334943631459,4.25226
1334943691459,4.26518
1334943751459,4.25549
1334943811459,4.27869
1334943871459,4.23668
1334943931459,4.23606
1334943991459,4.27796
1334944051459,4.22042
1334944111459,4.21093
1334944171459,4.20883
1334944231459,4.22909
1334944291459,4.25193
1334944351459,4.24635
1334944411459,4.19357
1334944471459,4.19180
1334944531459,4.20594
1334944591459,4.21901
1334944651459,4.19702
1334944711459,4.20662
1334944771459,4.21916
1334944831470,4.23420
1334944891470,4.22809
1334944951470,4.24853
1334945011470,4.21609
1334945071470,4.22517
1334945131470,4.25530
1334945191470,4.24358
1334945251470,4.24554
1334945311470,4.24870
1334945371470,4.21902
1334945431470,4.27396
1334945491470,4.23993
1334945551470,4.22948
1334945611470,4.24133
1334945671470,4.22748
1334945731470,4.21409
1334945791470,4.25344
1334945851470,4.23611